User: anonymous   Login
Location: Kernascl�den
(48.0062°N, 3.3198°W)
Time: 10:51:27
(UTC+00:00)
Language:

CZ-4B R/B - Orbit

View from above orbital plane
View from above orbital plane
View from above satellite
View from above satellite

Ground track
Ground track

The orbit data is extracted from the following two-line orbital elements,

1 29093U 06015B   21103.15078629  .00003063  00000-0  57034-4 0  9995
2 29093  97.6342 291.8017 0049178 316.6809  43.0578 15.48431123832929
Epoch (UTC): 13 April 2021 03:37:07
Eccentricity: 0.0049178
inclination: 97.6342°
perigee height: 388 km
apogee height: 455 km
right ascension of ascending node: 291.8017°
argument of perigee: 316.6809°
revolutions per day: 15.48431123
mean anomaly at epoch: 43.0578°
orbit number at epoch: 83292

The dashed part of the orbit path shows where the satellite is in the earth's shadow,  

DLR